SCP
0 1 1 2 1 1 1 1 1 1 1 1 2 2 2 2 2 2 2 2 1 1 1 1 1 1 1 1 1 1 1 1 1 1 1 1 1 0 0 0 0 0 0
0 1 1 1 2 1 1 1 1 1 1 1 2 2 2 2 2 2 2 2 1 1 1 1 1 1 1 1 1 1 1 1 1 1 1 1 1 0 0 0 0 0 0
0 1 1 1 2 2 2 2 2 1 1 1 2 2 2 2 2 2 2 1 1 1 1 1 1 1 1 1 1 1 1 1 1 1 1 1 0 0 0 0 0 0 0
0 1 1 2 2 2 2 2 2 2 1 1 1 1 1 2 2 2 1 1 1 1 1 1 1 1 1 1 1 1 1 1 1 1 1 1 0 0 0 0 0 0 0
1 1 1 2 2 2 2 2 2 2 2 1 1 1 1 1 1 1 1 1 1 1 1 1 1 1 2 1 1 1 1 1 1 1 1 1 0 1 0 0 1 1 1
1 1 1 2 2 2 2 2 2 2 2 2 1 1 1 1 1 1 1 1 1 1 1 1 1 1 1 1 1 1 1 1 1 1 1 0 1 1 1 1 1 1 1
1 1 2 2 2 2 2 2 2 2 2 2 2 1 1 1 1 1 1 1 1 1 1 1 1 1 1 1 1 1 1 1 1 1 0 0 1 1 1 1 1 1 1
1 1 2 2 2 2 2 2 2 2 2 2 2 1 1 1 1 1 1 1 1 1 1 1 1 1 1 1 2 1 1 1 1 1 1 0 1 1 1 1 1 1 1
1 1 2 2 3 3 2 2 2 2 2 2 2 2 1 1 1 1 1 1 1 1 1 2 2 1 1 1 1 1 1 1 1 1 1 1 1 1 1 1 1 1 1
1 1 2 3 3 3 3 2 2 2 2 2 2 2 1 1 1 1 1 0 0 1 1 1 2 2 1 1 1 1 1 0 1 1 1 1 1 1 1 1 1 1 1
1 1 2 2 3 3 3 3 2 2 2 2 2 1 1 1 1 1 1 0 0 0 1 1 2 2 2 1 1 1 0 0 1 1 1 1 1 1 1 1 1 1 1
1 1 1 2 2 3 3 3 2 2 2 1 1 1 1 1 1 1 0 0 0 0 0 1 1 1 1 1 1 1 0 0 1 1 1 1 1 1 1 1 1 1 1
1 1 1 1 1 2 2 2 2 2 1 1 0 0 1 1 1 1 0 0 0 0 0 0 1 1 1 0 1 0 0 0 0 0 0 1 1 1 1 1 1 1 2
1 1 1 1 1 1 1 1 1 1 0 0 0 0 0 1 1 1 0 0 0 0 0 0 0 0 0 0 0 0 0 0 0 0 0 0 1 1 1 1 1 2 2
1 1 1 1 1 1 1 1 0 0 0 0 0 0 0 1 0 0 0 0 0 0 0 0 0 0 0 0 0 0 0 0 0 0 0 0 0 1 1 1 1 2 2
1 1 1 1 1 1 1 1 0 0 0 0 0 0 0 0 0 0 0 0 0 0 0 0 0 0 0 0 0 0 0 0 0 0 0 0 0 0 1 1 1 2 2
0 1 1 1 1 1 1 0 0 0 0 0 0 0 0 0 0 0 0 0 0 0 0 0 0 0 0 0 0 0 0 0 0 0 0 0 0 0 0 1 1 2 2
0 0 1 1 1 1 0 0 0 0 0 0 0 0 0 0 0 0 0 0 0 0 0 0 0 0 0 0 0 0 0 0 0 0 0 0 0 0 1 1 1 1 2
0 0 1 1 1 1 0 0 0 0 0 0 0 0 0 0 0 0 0 0 0 0 0 0 0 0 0 0 0 0 0 0 0 0 0 0 0 1 1 1 1 1 2
0 0 1 1 1 1 0 0 0 0 0 0 0 0 0 0 0 0 0 0 0 0 0 0 0 0 0 0 0 0 0 0 0 0 0 0 0 0 1 1 1 1 1
0 0 1 1 1 1 0 0 0 0 0 0 0 0 0 0 0 0 0 0 0 0 0 0 0 0 0 0 0 0 0 0 0 0 0 0 0 0 0 1 1 1 1
0 0 1 1 1 1 0 0 0 0 0 0 0 0 0 0 0 0 0 0 0 0 0 0 0 0 0 0 0 0 0 0 0 0 0 0 0 0 0 1 1 1 1
0 1 1 1 1 1 0 0 0 0 0 0 0 0 0 0 0 0 0 0 0 0 0 0 0 0 0 0 0 0 0 0 0 0 0 0 0 0 0 0 1 1 1
1 1 1 1 1 1 0 0 0 0 0 0 0 0 0 0 0 0 0 0 0 0 0 0 0 0 0 0 0 0 0 0 0 0 0 0 0 0 0 0 1 1 1
0 1 1 1 1 0 0 0 0 0 0 0 0 0 0 0 0 0 0 0 0 0 0 0 0 0 0 0 0 0 0 0 0 0 0 0 0 0 0 0 1 1 1
0 0 0 1 0 0 0 0 0 0 0 0 0 0 0 0 0 0 0 0 0 0 0 0 0 0 0 0 0 0 0 0 0 0 0 0 0 0 0 1 1 1 1
Wind_Speed
3 4 5 6 6 7 9 10 10 11 11 11 12 12 13 13 13 13 13 13 13 13 13 13 13 12 12 12 12 11 11 11 12 12 12 11 12 12 12 12 10 7 12
2 3 4 6 7 8 9 10 11 11 11 12 12 12 13 13 13 13 13 14 14 14 14 14 13 13 13 12 12 11 11 11 11 11 10 9 9 10 11 11 10 7 11
1 2 3 6 8 9 9 10 11 11 11 12 12 12 12 13 13 13 13 13 14 14 14 14 13 13 13 13 12 12 11 11 10 10 8 5 6 9 10 10 10 11 11
2 3 3 6 8 9 10 10 11 11 12 12 12 12 12 12 12 13 13 13 13 13 13 13 13 13 13 12 12 11 11 11 10 8 5 4 4 8 10 10 10 10 10
3 3 3 7 8 9 9 10 11 11 11 12 12 11 12 12 12 13 12 12 12 12 12 12 13 13 12 11 11 11 11 11 10 7 4 4 3 7 8 9 9 9 9
4 4 4 8 8 9 10 11 11 12 12 12 12 12 12 12 12 12 12 12 12 12 12 12 12 12 12 11 11 11 11 10 8 5 4 4 3 6 8 8 8 8 8
4 4 5 9 9 10 11 11 11 12 12 12 12 12 12 12 12 12 12 12 11 11 11 11 11 12 11 11 11 11 10 10 6 4 4 3 4 7 7 7 7 7 8
5 5 6 8 10 10 10 11 11 12 12 12 12 12 12 12 12 12 12 12 11 11 11 11 11 11 11 11 11 11 10 8 6 5 4 4 5 7 6 6 6 6 6
5 5 5 5 6 9 10 10 11 11 12 12 12 12 12 12 12 12 12 12 11 11 11 11 11 11 11 11 11 11 11 10 5 3 4 3 6 7 6 6 6 6 5
6 5 5 5 5 5 5 9 10 11 12 12 12 12 12 11 11 12 11 12 12 11 11 11 11 12 11 12 12 11 10 8 4 3 2 3 7 7 6 6 6 5 4
5 5 5 5 5 4 4 7 7 9 10 10 9 11 9 5 5 6 9 11 11 11 11 11 11 11 11 10 11 11 8 4 4 3 2 4 5 6 5 5 4 4 4
3 4 4 4 4 4 4 3 3 4 4 5 5 5 4 4 5 6 9 11 11 12 11 12 11 10 8 4 7 8 4 4 4 3 3 5 5 4 4 4 3 3 3
3 3 3 3 3 3 2 2 2 2 3 4 5 5 4 4 4 4 3 5 6 8 6 8 7 5 5 4 4 4 4 3 3 3 4 6 5 4 3 3 3 2 2
3 3 2 3 3 3 2 2 2 2 2 3 4 4 3 3 3 3 3 3 3 3 4 4 4 5 5 5 4 4 4 3 2 2 3 7 6 5 3 2 2 2 1
4 2 2 3 3 2 2 2 3 3 2 2 3 3 4 3 3 3 3 3 3 3 3 4 4 5 5 5 4 4 4 4 3 3 2 6 6 6 5 4 3 2 2
3 2 1 2 2 2 2 2 2 2 2 2 3 3 4 3 3 3 3 3 3 3 3 3 3 4 3 3 4 4 4 3 3 4 3 3 5 6 6 5 4 3 3
3 2 2 2 3 3 3 2 2 2 2 2 2 3 3 3 3 2 2 3 3 3 3 3 3 3 3 4 4 4 3 3 3 3 3 2 3 4 5 5 5 4 4
4 3 2 2 3 3 2 2 2 2 3 2 2 2 3 3 3 2 2 3 3 3 3 2 3 3 3 3 3 3 3 3 3 3 3 2 2 2 3 4 5 4 4
5 4 3 2 2 2 2 2 2 2 3 2 2 2 3 3 3 2 2 2 3 3 3 3 3 3 3 3 3 3 3 3 3 3 2 3 2 2 2 3 5 5 5
4 4 3 3 2 2 2 2 2 3 2 2 2 2 3 3 3 2 2 2 3 2 3 3 3 3 3 3 4 4 3 3 2 1 2 2 2 3 3 3 2 4 6
4 4 3 3 2 2 1 1 1 1 1 2 2 3 3 3 3 3 2 2 2 2 2 3 2 3 3 3 2 4 3 2 2 1 1 2 3 3 3 3 2 3 3
5 4 4 3 2 2 1 1 1 0 0 1 2 3 3 3 3 3 2 2 2 2 3 3 3 2 2 3 2 2 3 3 2 3 2 1 2 3 3 4 3 3 3
5 5 4 3 3 2 2 2 2 2 2 2 2 2 3 3 3 2 2 2 2 1 1 2 2 2 2 2 1 1 1 2 4 3 2 2 3 3 3 4 4 4 4
5 4 4 4 3 2 3 2 2 1 0 1 1 1 3 3 3 3 2 2 2 2 1 2 2 2 2 2 2 1 1 2 2 4 3 2 3 3 4 5 5 4 4
5 4 4 4 3 2 3 3 2 1 0 0 1 2 2 2 2 3 3 2 2 2 2 2 2 2 1 2 2 2 2 2 3 3 5 4 3 2 3 3 4 3 4
4 4 3 3 2 2 3 2 2 1 0 1 1 2 2 2 2 3 3 2 2 2 2 2 2 2 2 2 2 2 2 2 2 3 4 6 6 4 3 3 3 3 3
Wind_Direction
310 316 350 26 47 55 58 59 59 57 56 56 57 56 55 54 54 54 54 53 53 53 52 51 53 56 56 59 61 62 64 65 67 66 64 66 71 75 76 75 75 75 82
270 313 3 37 54 60 62 62 61 60 59 58 57 57 56 54 53 54 53 52 52 51 50 50 51 53 54 56 59 62 64 63 61 60 59 60 67 73 76 77 77 82 84
22 356 17 47 60 63 63 64 65 64 62 60 58 58 57 55 53 53 53 52 50 50 49 48 48 50 51 52 53 58 61 60 58 53 52 49 66 78 80 79 79 81 83
52 24 33 61 70 69 67 66 65 64 63 61 60 59 58 57 56 54 53 52 51 49 48 46 45 46 46 48 50 54 56 57 54 51 46 38 53 79 83 83 82 81 82
53 28 33 73 75 72 71 69 66 64 62 61 60 59 59 58 57 55 53 51 50 49 47 45 43 42 42 43 47 51 52 52 47 44 39 35 39 74 82 84 83 83 83
58 35 43 74 74 71 70 68 66 64 62 61 59 58 59 58 57 54 52 50 50 48 46 45 42 39 39 40 46 49 48 47 44 40 34 32 38 71 79 83 83 84 85
64 43 47 65 70 69 68 67 66 64 62 61 60 57 55 55 54 52 48 47 47 46 43 41 40 38 38 41 43 46 46 45 47 39 31 25 40 67 76 82 83 83 84
70 53 46 58 61 62 65 65 64 62 61 60 59 56 53 52 51 49 46 43 43 42 42 39 38 37 36 38 41 41 40 42 46 41 30 27 40 56 69 76 80 81 81
70 59 47 41 47 53 58 63 63 62 60 59 57 54 51 48 48 46 42 40 39 39 38 37 37 36 34 34 38 38 36 35 38 33 33 28 39 49 58 64 68 73 78
67 61 52 44 41 39 44 59 63 62 59 57 55 52 49 44 42 42 37 38 36 35 36 34 34 32 32 31 33 32 30 29 25 26 21 28 38 44 50 55 55 60 69
62 53 51 47 41 37 44 51 53 58 57 55 49 50 45 29 28 32 30 36 34 31 31 31 30 28 27 26 26 26 26 20 12 17 9 21 35 35 38 44 46 48 56
70 55 47 47 42 37 47 43 36 49 49 47 45 40 36 29 27 33 28 33 31 26 23 23 24 23 21 12 15 20 19 12 11 6 8 12 20 24 27 32 33 37 45
101 71 49 49 46 46 44 46 37 41 44 43 44 41 40 35 27 25 20 20 18 20 13 9 12 11 8 4 6 10 10 12 6 354 358 3 0 1 7 16 16 22 39
102 77 54 54 54 46 49 53 50 44 45 44 37 39 46 40 27 18 20 9 12 8 4 2 0 1 2 0 4 7 7 2 351 343 347 356 355 347 343 344 348 351 4
114 91 62 65 64 53 50 50 56 47 45 49 45 37 44 47 31 18 14 10 4 3 3 356 356 357 358 357 358 0 358 352 343 337 338 351 352 349 339 328 318 322 326
129 124 89 78 69 66 57 51 56 52 42 39 43 36 40 47 38 22 12 5 0 357 354 350 347 352 347 349 352 348 341 340 343 338 330 339 347 346 339 322 311 311 312
141 132 112 103 79 70 65 52 64 57 53 42 38 35 38 44 40 28 14 4 352 350 353 352 352 355 351 349 345 340 335 334 327 328 325 320 326 341 341 330 317 309 306
135 128 122 107 90 76 68 55 60 58 54 43 33 37 34 35 36 36 24 3 348 352 359 352 355 350 345 337 330 324 325 322 316 316 318 320 320 322 333 339 339 330 322
146 140 129 105 101 90 78 67 63 60 50 39 34 38 29 29 29 33 26 359 354 358 1 354 352 345 337 334 324 319 321 313 305 313 320 322 316 324 329 345 347 341 334
145 140 132 111 96 87 79 64 56 52 38 28 35 29 28 22 23 24 23 5 5 6 359 355 343 347 333 327 327 324 308 295 292 297 311 331 341 347 355 351 342 341 336
138 138 137 122 109 104 82 62 61 38 22 16 21 20 23 21 17 22 12 4 9 10 348 349 341 343 345 343 344 334 323 307 298 322 335 343 352 345 345 358 354 348 326
155 154 149 144 130 124 117 107 96 76 41 35 11 10 11 18 10 11 12 360 360 1 359 354 349 342 344 1 354 336 330 335 345 340 334 344 344 346 349 348 342 341 327
161 168 166 158 143 138 119 86 62 50 26 19 11 3 358 1 3 360 2 1 349 359 347 339 341 350 331 339 5 343 319 303 319 303 313 345 347 345 340 330 329 332 331
177 169 161 156 147 147 128 112 109 101 69 315 330 339 345 355 359 358 355 358 351 348 343 330 353 327 320 321 329 320 284 278 287 306 308 328 330 326 324 322 320 323 325
167 164 158 153 151 150 135 136 133 123 159 335 359 358 351 344 349 352 353 359 351 344 332 326 332 325 310 292 297 298 301 299 267 267 291 308 311 298 295 302 304 308 314
154 151 145 151 159 152 137 138 139 146 130 29 358 347 339 332 337 346 349 353 341 332 320 311 308 312 303 294 293 283 281 278 280 275 279 292 296 294 291 283 291 295 302